Погода в Заречье

Россия / Калининградская область     54°36′51″N   21°02′03″E
темп.,
°C
ветер,
м/с
пор.,
м/с
влажн.,
%
обл.,
%
осадки,
мм/ч
давл.,
гПа
погр.,
м
5 августа, чт
чт523:00+13ссз22885 0.0 101519
02:00+12сз22910 0.0 101416
05:00+11ссз11920 0.0 101410
08:00+16св237523 0.0 1014281
11:00+21в33595 0.0 10131181
14:00+23всв344688 0.0 10122162
17:00+21в3656100 0.0 1011234
20:00+17всв4879100 0.2 1011243
6 августа, пт
пт623:00+14всв31089100 0.0 1010244
02:00+13св41284100 0.0 1009398
05:00+13св51182100 0.0 1008499
08:00+14св6117588 0.0 1007654
11:00+17св6863100 0.0 10071152
14:00+19св4756100 0.0 10061658
17:00+18св3565100 0.1 1006406
20:00+13ссз2896100 1.6 1006354
7 августа, сб
сб723:00+13зсз3798100 0.9 1006321
02:00+14з4996100 1.1 1005400
05:00+13з5109690 0.1 1005426
08:00+15з4991100 0.2 1006565
11:00+21зсз685628 0.1 10071545
14:00+22з684813 0.1 10071836
17:00+22зсз46473 0.0 10081154
20:00+17с227062 0.0 100913
8 августа, вс
вс823:00+14в228591 0.0 101024
02:00+14вюв22817 0.0 101020
05:00+14юв339286 0.0 100947
08:00+19юв4671100 0.0 1009246
11:00+24ююв5959100 0.0 1008681
14:00+20ююз477392 0.0 1009374
17:00+22з686622 0.0 1011945
20:00+18зсз228398 0.0 101326
9 августа, пн
пн923:00+15зсз119363 0.0 101411
02:00+16ю128996 0.0 101418
05:00+16ююз3492100 0.3 101591
08:00+18юз477651 0.4 1015333
11:00+22зюз575386 0.0 10161492
14:00+24з684496 0.0 10162262
17:00+22зсз465492 0.0 1017826
20:00+18зсз2267100 0.0 101740